Regional Weather Roundup
Issued by NWS

Home | Current Version | Previous Version | Graphics & Text | Print | Product List | Glossary On
Versions: 1 2 3 4 5 6 7 8 9 10 11 12 13 14 15 16 17 18 19 20 21 22 23 24 25 26 27 28 29 30 31 32 33 34 35 36 37 38 39 40 41 42 43 44 45 46 47 48 49 50
000
ASUS43 KIND 020409
RWRIN

WEATHER ROUNDUP FOR INDIANA
NATIONAL WEATHER SERVICE INDIANAPOLIS IN
1200 AM EDT THU JUL 02 2015

NOTE: "FAIR" INDICATES FEW OR NO CLOUDS BELOW 12,000 FEET WITH NO
SIGNIFICANT WEATHER AND/OR OBSTRUCTIONS TO VISIBILITY.

* - STATION DOES NOT REPORT WEATHER SUCH AS PRECIPITATION OR FOG.

+ - STATION NOT QUALITY CONTROLLED BY THE NATIONAL WEATHER SERVICE.
    USE DATA WITH CAUTION...ESPECIALLY DEWPOINT AND RELATIVE
    HUMIDITY OBSERVATIONS.

INZ001>003-010>013-019-020-020500-
NORTHWEST INDIANA

CITY           SKY/WX    TMP DP  RH WIND       PRES   REMARKS
GARY /AIRPORT/ MOCLDY    58  54  87 N6        30.00F
KNOX *+        MOCLDY    54  54 100 NW5       29.99R
LA PORTE +     MOCLDY    58  57  95 CALM      30.00R
MICHIGAN CITY+ CLOUDY    57  54  88 N3        30.00R
MONTICELLO +   PTCLDY    59  53  80 N7        29.97S
RENSSELAER +   MOCLDY    57  55  94 N6        29.99S
VALPARAISO     CLOUDY    57  54  89 NE3       30.00S

$$

LMZ046-743>745-020500-
SOUTHERN LAKE MICHIGAN

STATION/POSITION TIME  TEMP    WIND        PRES    WAVE
                       AIR SEA DIR/SP/G            HT
                 (UTC) (F)     (DEG/KT/KT) (MB)    (FT)
BURNS HARBOR     0400   58      10/  9/ 12 1016.3F
MICHIGAN CITY    0400   58     340/ 10/ 13   N/A
5NW MICH CITY    0400   58 64  360/ 10/ 14   N/A     3

$$

INZ004-005-014>016-021>024-020500-
NORTH CENTRAL INDIANA

CITY           SKY/WX    TMP DP  RH WIND       PRES   REMARKS
GOSHEN         MOCLDY    57  52  83 NW3       29.98R
LOGANSPORT +   PTCLDY    57  48  72 N6        29.98R
PERU/GRISSOM   PTCLDY    60  53  79 N6        29.96R
ROCHESTER +    PTCLDY    59  55  88 CALM      29.98S
SOUTH BEND     MOCLDY    55  52  89 N5        29.99S

$$

INZ006>009-017-018-025>027-020500-
NORTHEAST INDIANA

CITY           SKY/WX    TMP DP  RH WIND       PRES   REMARKS
ANGOLA *+        N/A     61  50  67 N3        29.96S
AUBURN +       CLOUDY    59  54  82 CALM      29.97S
FORT WAYNE     MOCLDY    61  54  77 N9        29.97R
HUNTINGTON +   PTCLDY    59  54  82 N3        29.96S

$$

INZ028-029-035-036-043>045-051>053-020500-
WEST CENTRAL INDIANA

CITY           SKY/WX    TMP DP  RH WIND       PRES   REMARKS
CRAWFORDSVL +  PTCLDY    61  52  73 NE5       29.95S
GREENCASTLE +  CLOUDY    68  61  77 NE6       29.94S
LAFAYETTE      PTCLDY    60  52  74 NE10      29.96S
TERRE HAUTE    LGT RAIN  70  66  87 NE6       29.92S

$$

INZ030>032-037>040-046>048-054>057-064-065-020500-
CENTRAL INDIANA

CITY           SKY/WX    TMP DP  RH WIND       PRES   REMARKS
CP ATTERBURY + CLOUDY    68  64  88 CALM      29.94S
FRANKFORT +    PTCLDY    62  55  77 N9        29.98S
GREENWOOD *+   CLOUDY    70  64  83 CALM      29.95R
INDIANAPOLIS   CLOUDY    71  61  70 NE9       29.92R
-EAGLE CREEK   MOCLDY    68  61  78 VRB6      29.94R
KOKOMO *+      MOCLDY    61  54  77 N8        29.97R
MARION +       CLOUDY    62  54  75 N6        29.96S
MT COMFORT *+  MOCLDY    68  68 100 N7        29.95S
SHELBYVILLE    LGT RAIN  72  67  84 CALM      29.93R
ZIONSVILLE +   MOCLDY    65  58  76 N6        29.96S

$$

INZ033-034-041-042-049-050-058-059-020500-
EAST CENTRAL INDIANA

CITY           SKY/WX    TMP DP  RH WIND       PRES   REMARKS
MUNCIE         CLOUDY    67  59  75 N7        29.95S

$$

INZ060-061-067>069-081>083-085>088-020500-
SOUTHWEST INDIANA

CITY           SKY/WX    TMP DP  RH WIND       PRES   REMARKS
EVANSVILLE     MOCLDY    74  70  87 CALM      29.91R
HUNTINGBURG *+ CLOUDY    72  68  88 CALM      29.93R
WASHINGTON +   CLOUDY    70  66  88 CALM      29.91F

$$

INZ062-063-066-070>080-084-089>092-020500-
SOUTH CENTRAL AND SOUTHEAST INDIANA

CITY           SKY/WX    TMP DP  RH WIND       PRES   REMARKS
BLOOMINGTON    CLOUDY    70  68  93 CALM      29.93R
MADISON *+     CLOUDY    70  68  94 CALM      29.96S
NORTH VERNON + CLOUDY    72  72 100 CALM      29.94S
SEYMOUR +      CLOUDY    72  68  88 S3        29.93S

$$




USA.gov is the U.S. government's official web portal to all federal, state and local government web resources and services.